TimeAKDT,TemperatureF,Dew PointF,Humidity,Sea Level PressureIn,VisibilityMPH,Wind Direction,Wind SpeedMPH,Gust SpeedMPH,PrecipitationIn,Events,Conditions,WindDirDegrees,DateUTC
12:16 AM,37.4,33.8,87,30.04,10.0,NNE,15.0,-,N/A,,Clear,20,2013-06-13 08:16:00
12:36 AM,37.4,33.8,87,30.04,10.0,North,13.8,-,N/A,,Clear,10,2013-06-13 08:36:00
12:56 AM,37.4,33.8,87,30.04,10.0,NNE,15.0,-,N/A,,Clear,20,2013-06-13 08:56:00
1:16 AM,37.4,33.8,87,30.03,10.0,NNE,18.4,-,N/A,,Clear,20,2013-06-13 09:16:00
1:36 AM,37.4,33.8,87,30.04,10.0,NNE,16.1,-,N/A,,Clear,30,2013-06-13 09:36:00
1:56 AM,37.4,33.8,87,30.04,10.0,NNE,15.0,-,N/A,,Clear,20,2013-06-13 09:56:00
2:16 AM,37.4,33.8,87,30.03,10.0,NNE,16.1,-,N/A,,Clear,20,2013-06-13 10:16:00
2:36 AM,37.4,33.8,87,30.03,10.0,NNE,16.1,-,N/A,,Clear,20,2013-06-13 10:36:00
2:56 AM,37.4,33.8,87,30.03,10.0,NNE,17.3,-,N/A,,Clear,20,2013-06-13 10:56:00
3:16 AM,37.4,33.8,87,30.02,10.0,NNE,19.6,-,N/A,,Clear,30,2013-06-13 11:16:00
3:36 AM,37.4,33.8,87,30.02,10.0,NNE,21.9,-,N/A,,Clear,30,2013-06-13 11:36:00
3:56 AM,37.4,33.8,87,30.02,10.0,NNE,18.4,-,N/A,,Clear,30,2013-06-13 11:56:00
4:16 AM,37.4,33.8,87,30.01,10.0,NNE,17.3,-,N/A,,Clear,30,2013-06-13 12:16:00
4:36 AM,37.4,33.8,87,30.02,10.0,NNE,17.3,-,N/A,,Clear,20,2013-06-13 12:36:00
4:56 AM,37.4,33.8,87,30.01,10.0,NNE,17.3,-,N/A,,Clear,30,2013-06-13 12:56:00
5:16 AM,37.4,33.8,87,30.01,10.0,NNE,17.3,-,N/A,,Clear,20,2013-06-13 13:16:00
5:36 AM,37.4,33.8,87,30.01,10.0,NNE,18.4,-,N/A,,Clear,30,2013-06-13 13:36:00
5:56 AM,37.4,33.8,87,30.00,10.0,NNE,19.6,-,N/A,,Clear,30,2013-06-13 13:56:00
6:16 AM,37.4,33.8,87,30.00,10.0,NNE,20.7,-,N/A,,Clear,30,2013-06-13 14:16:00
6:36 AM,37.4,33.8,87,30.00,10.0,NNE,20.7,-,N/A,,Clear,30,2013-06-13 14:36:00
6:56 AM,37.4,33.8,87,30.00,10.0,NE,19.6,-,N/A,,Clear,40,2013-06-13 14:56:00
7:16 AM,37.4,33.8,87,30.00,10.0,NE,21.9,-,N/A,,Clear,40,2013-06-13 15:16:00
7:36 AM,37.4,33.8,87,30.00,10.0,NE,20.7,-,N/A,,Clear,40,2013-06-13 15:36:00
7:56 AM,37.4,33.8,87,30.00,10.0,NE,23.0,-,N/A,,Clear,40,2013-06-13 15:56:00
8:16 AM,37.4,33.8,87,30.00,10.0,NNE,21.9,-,N/A,,Clear,30,2013-06-13 16:16:00
8:36 AM,37.4,35.6,93,30.00,10.0,NNE,20.7,-,N/A,,Clear,30,2013-06-13 16:36:00
8:56 AM,39.2,35.6,87,29.99,10.0,NNE,19.6,-,N/A,,Clear,30,2013-06-13 16:56:00
9:16 AM,39.2,35.6,87,29.99,10.0,NNE,20.7,-,N/A,,Clear,20,2013-06-13 17:16:00
9:36 AM,39.2,35.6,87,30.00,10.0,NNE,20.7,-,N/A,,Clear,30,2013-06-13 17:36:00
9:56 AM,39.2,33.8,81,30.00,10.0,NE,20.7,-,N/A,,Clear,40,2013-06-13 17:56:00
10:16 AM,39.2,33.8,81,29.99,10.0,NNE,23.0,-,N/A,,Clear,30,2013-06-13 18:16:00
10:36 AM,39.2,33.8,81,29.99,10.0,NNE,21.9,-,N/A,,Clear,30,2013-06-13 18:36:00
10:56 AM,39.2,33.8,81,30.00,10.0,NNE,20.7,-,N/A,,Clear,20,2013-06-13 18:56:00
11:16 AM,39.2,33.8,81,30.00,10.0,NNE,21.9,-,N/A,,Clear,30,2013-06-13 19:16:00
11:36 AM,39.2,33.8,81,30.00,10.0,NNE,23.0,-,N/A,,Clear,30,2013-06-13 19:36:00
11:56 AM,41.0,33.8,76,29.99,10.0,NNE,23.0,-,N/A,,Clear,30,2013-06-13 19:56:00
12:16 PM,42.8,33.8,70,29.99,10.0,NNE,23.0,-,N/A,,Clear,20,2013-06-13 20:16:00
12:36 PM,42.8,33.8,70,30.00,10.0,NNE,20.7,-,N/A,,Clear,20,2013-06-13 20:36:00
12:56 PM,42.8,33.8,70,30.00,10.0,NNE,20.7,-,N/A,,Clear,20,2013-06-13 20:56:00
1:16 PM,42.8,33.8,70,30.00,10.0,NNE,20.7,-,N/A,,Clear,20,2013-06-13 21:16:00
1:36 PM,42.8,33.8,70,30.00,10.0,NNE,18.4,-,N/A,,Clear,20,2013-06-13 21:36:00
1:56 PM,41.0,33.8,76,29.99,10.0,NNE,23.0,-,N/A,,Clear,20,2013-06-13 21:56:00
2:16 PM,41.0,33.8,76,29.99,10.0,NNE,23.0,-,N/A,,Clear,20,2013-06-13 22:16:00
2:36 PM,41.0,33.8,76,29.99,10.0,NNE,23.0,-,N/A,,Clear,20,2013-06-13 22:36:00
2:56 PM,42.8,33.8,70,30.00,10.0,NNE,19.6,-,N/A,,Clear,20,2013-06-13 22:56:00
3:16 PM,42.8,33.8,70,30.00,10.0,NNE,18.4,-,N/A,,Clear,20,2013-06-13 23:16:00
3:36 PM,42.8,33.8,70,30.01,10.0,NNE,16.1,-,N/A,,Clear,20,2013-06-13 23:36:00
3:56 PM,42.8,33.8,70,30.01,10.0,NNE,15.0,-,N/A,,Clear,30,2013-06-13 23:56:00
4:16 PM,42.8,33.8,70,30.00,10.0,NNE,16.1,-,N/A,,Clear,20,2013-06-14 00:16:00
4:36 PM,42.8,33.8,70,30.00,10.0,NNE,17.3,-,N/A,,Clear,20,2013-06-14 00:36:00
4:56 PM,44.6,33.8,66,30.00,10.0,North,13.8,-,N/A,,Clear,10,2013-06-14 00:56:00
5:16 PM,44.6,33.8,66,30.00,10.0,North,13.8,-,N/A,,Clear,10,2013-06-14 01:16:00
5:36 PM,44.6,35.6,71,30.01,10.0,NNE,12.7,-,N/A,,Clear,20,2013-06-14 01:36:00
5:56 PM,44.6,35.6,71,30.00,10.0,NNE,15.0,-,N/A,,Clear,20,2013-06-14 01:56:00
6:16 PM,44.6,35.6,71,30.00,10.0,NE,13.8,-,N/A,,Clear,40,2013-06-14 02:16:00
6:36 PM,44.6,35.6,71,30.00,10.0,NNE,11.5,-,N/A,,Clear,30,2013-06-14 02:36:00
6:56 PM,42.8,33.8,70,29.99,10.0,NNE,10.4,-,N/A,,Clear,20,2013-06-14 02:56:00
7:16 PM,46.4,35.6,66,29.99,10.0,NE,10.4,-,N/A,,Clear,40,2013-06-14 03:16:00
7:36 PM,48.2,35.6,62,29.99,10.0,North,4.6,-,N/A,,Clear,360,2013-06-14 03:36:00
7:56 PM,51.8,39.2,62,29.99,10.0,NE,8.1,-,N/A,,Clear,50,2013-06-14 03:56:00
8:16 PM,46.4,35.6,66,29.99,10.0,NE,12.7,-,N/A,,Clear,40,2013-06-14 04:16:00
8:36 PM,44.6,35.6,71,29.99,10.0,NNE,8.1,-,N/A,,Clear,30,2013-06-14 04:36:00
8:56 PM,44.6,33.8,66,29.99,10.0,NE,13.8,-,N/A,,Clear,40,2013-06-14 04:56:00
9:16 PM,44.6,35.6,71,29.99,10.0,NE,12.7,-,N/A,,Clear,50,2013-06-14 05:16:00
9:36 PM,46.4,35.6,66,29.99,10.0,NE,13.8,-,N/A,,Clear,40,2013-06-14 05:36:00
9:56 PM,44.6,35.6,71,30.00,10.0,NE,10.4,-,N/A,,Scattered Clouds,40,2013-06-14 05:56:00
10:16 PM,46.4,35.6,66,30.01,10.0,WNW,6.9,-,N/A,,Partly Cloudy,300,2013-06-14 06:16:00
10:36 PM,44.6,37.4,76,30.01,10.0,WSW,4.6,-,N/A,,Partly Cloudy,240,2013-06-14 06:36:00
10:56 PM,44.6,37.4,76,30.01,10.0,SSW,5.8,-,N/A,,Scattered Clouds,200,2013-06-14 06:56:00
11:16 PM,44.6,37.4,76,30.01,10.0,South,4.6,-,N/A,,Mostly Cloudy,190,2013-06-14 07:16:00
11:36 PM,44.6,37.4,76,30.01,10.0,SSW,3.5,-,N/A,,Overcast,210,2013-06-14 07:36:00
11:56 PM,44.6,37.4,76,30.01,10.0,South,4.6,-,N/A,,Mostly Cloudy,190,2013-06-14 07:56:00